Time,TemperatureF,DewpointF,PressureIn,WindDirection,WindDirectionDegrees,WindSpeedMPH,WindSpeedGustMPH,Humidity,HourlyPrecipIn,Conditions,Clouds,dailyrainin,SoftwareType,DateUTC
2013-10-07 00:01:00,70.5,65.1,29.87,ENE,57,0.0,0.0,83,0.00,,---,0.00,VWS V14.01,2013-10-07 04:01:00,
2013-10-07 00:02:00,70.5,65.1,29.87,NE,56,0.0,0.0,83,0.00,,---,0.00,VWS V14.01,2013-10-07 04:02:00,
2013-10-07 00:03:00,70.5,65.1,29.88,ESE,104,0.0,0.0,83,0.00,,---,0.00,VWS V14.01,2013-10-07 04:03:00,
2013-10-07 00:08:00,70.4,65.0,29.88,SE,134,0.0,0.0,83,0.00,,---,0.00,VWS V14.01,2013-10-07 04:08:00,
2013-10-07 00:13:00,70.3,64.9,29.88,NNE,30,0.0,0.0,83,0.00,,---,0.00,VWS V14.01,2013-10-07 04:13:00,
2013-10-07 00:18:00,70.3,64.9,29.88,ESE,123,0.0,0.0,83,0.00,,---,0.00,VWS V14.01,2013-10-07 04:18:00,
2013-10-07 00:23:00,70.4,65.0,29.87,ENE,71,0.0,0.0,83,0.00,,---,0.00,VWS V14.01,2013-10-07 04:23:00,
2013-10-07 00:28:00,70.4,65.0,29.87,ENE,58,0.0,0.0,83,0.00,,---,0.00,VWS V14.01,2013-10-07 04:28:00,
2013-10-07 00:33:00,70.4,65.0,29.87,ENE,72,0.0,2.0,83,0.00,,---,0.00,VWS V14.01,2013-10-07 04:33:00,
2013-10-07 00:38:00,70.4,65.0,29.87,ENE,60,0.0,2.0,83,0.00,,---,0.00,VWS V14.01,2013-10-07 04:38:00,
2013-10-07 00:44:00,70.4,65.3,29.87,SE,138,0.0,0.0,84,0.00,,---,0.00,VWS V14.01,2013-10-07 04:44:00,
2013-10-07 00:49:00,70.3,65.2,29.87,SE,128,0.0,0.0,84,0.00,,---,0.00,VWS V14.01,2013-10-07 04:49:00,
2013-10-07 00:54:00,70.3,65.2,29.87,SE,124,0.0,0.0,84,0.00,,---,0.00,VWS V14.01,2013-10-07 04:54:00,
2013-10-07 00:59:00,70.2,65.1,29.87,ESE,107,0.0,0.0,84,0.00,,---,0.00,VWS V14.01,2013-10-07 04:59:00,
2013-10-07 01:04:00,70.1,65.1,29.87,ESE,110,0.0,0.0,84,0.00,,---,0.00,VWS V14.01,2013-10-07 05:04:00,
2013-10-07 01:09:00,70.1,65.4,29.86,East,94,0.0,0.0,85,0.00,,---,0.00,VWS V14.01,2013-10-07 05:09:00,
2013-10-07 01:14:00,69.9,65.2,29.86,SE,126,0.0,0.0,85,0.00,,---,0.00,VWS V14.01,2013-10-07 05:14:00,
2013-10-07 01:19:00,69.7,65.0,29.86,ESE,113,0.0,0.0,85,0.00,,---,0.00,VWS V14.01,2013-10-07 05:19:00,
2013-10-07 01:24:00,69.5,65.1,29.85,ESE,108,0.0,0.0,86,0.00,,---,0.00,VWS V14.01,2013-10-07 05:24:00,
2013-10-07 01:30:00,69.3,64.9,29.85,ENE,76,0.0,0.0,86,0.00,,---,0.00,VWS V14.01,2013-10-07 05:30:00,
2013-10-07 01:35:00,69.2,64.8,29.85,SE,132,0.0,0.0,86,0.00,,---,0.00,VWS V14.01,2013-10-07 05:35:00,
2013-10-07 01:40:00,69.1,65.1,29.85,SE,131,0.0,0.0,87,0.00,,---,0.00,VWS V14.01,2013-10-07 05:40:00,
2013-10-07 01:45:00,69.1,65.1,29.85,SE,132,0.0,0.0,87,0.00,,---,0.00,VWS V14.01,2013-10-07 05:45:00,
2013-10-07 01:50:00,69.2,65.2,29.85,ENE,77,0.0,0.0,87,0.00,,---,0.00,VWS V14.01,2013-10-07 05:50:00,
2013-10-07 01:55:00,69.1,65.1,29.84,ESE,110,0.0,0.0,87,0.00,,---,0.00,VWS V14.01,2013-10-07 05:55:00,
2013-10-07 02:00:00,69.1,65.1,29.84,ESE,114,0.0,0.0,87,0.00,,---,0.00,VWS V14.01,2013-10-07 06:00:00,
2013-10-07 02:05:00,69.1,65.1,29.84,ESE,105,0.0,2.0,87,0.00,,---,0.00,VWS V14.01,2013-10-07 06:05:00,
2013-10-07 02:11:00,69.1,65.4,29.84,ESE,104,0.0,0.0,88,0.00,,---,0.00,VWS V14.01,2013-10-07 06:11:00,
2013-10-07 02:16:00,69.1,65.4,29.84,SE,134,0.0,0.0,88,0.00,,---,0.00,VWS V14.01,2013-10-07 06:16:00,
2013-10-07 02:21:00,69.1,65.4,29.84,East,84,0.0,1.0,88,0.00,,---,0.00,VWS V14.01,2013-10-07 06:21:00,
2013-10-07 02:26:00,69.1,65.4,29.84,SE,126,0.0,1.0,88,0.00,,---,0.00,VWS V14.01,2013-10-07 06:26:00,
2013-10-07 02:31:00,69.1,65.4,29.83,SSE,150,0.0,0.0,88,0.00,,---,0.00,VWS V14.01,2013-10-07 06:31:00,
2013-10-07 02:36:00,69.1,65.4,29.83,ESE,107,0.0,0.0,88,0.00,,---,0.00,VWS V14.01,2013-10-07 06:36:00,
2013-10-07 02:41:00,69.1,65.4,29.83,SSE,153,0.0,0.0,88,0.00,,---,0.00,VWS V14.01,2013-10-07 06:41:00,
2013-10-07 02:46:00,69.0,65.3,29.82,East,86,0.0,3.0,88,0.00,,---,0.00,VWS V14.01,2013-10-07 06:46:00,
2013-10-07 02:51:00,69.0,65.3,29.82,ESE,110,0.0,2.0,88,0.00,,---,0.00,VWS V14.01,2013-10-07 06:51:00,
2013-10-07 02:56:00,68.9,65.5,29.82,ESE,105,1.0,1.0,89,0.00,,---,0.00,VWS V14.01,2013-10-07 06:56:00,
2013-10-07 03:01:00,68.9,65.5,29.82,ESE,120,1.0,2.0,89,0.00,,---,0.00,VWS V14.01,2013-10-07 07:01:00,
2013-10-07 03:06:00,68.8,65.4,29.82,East,99,2.0,3.0,89,0.00,,---,0.00,VWS V14.01,2013-10-07 07:06:00,
2013-10-07 03:12:00,68.8,65.4,29.82,ESE,108,0.0,1.0,89,0.00,,---,0.00,VWS V14.01,2013-10-07 07:12:00,
2013-10-07 03:17:00,68.7,65.3,29.82,ESE,105,1.0,2.0,89,0.00,,---,0.00,VWS V14.01,2013-10-07 07:17:00,
2013-10-07 03:22:00,68.6,65.6,29.82,East,99,0.0,2.0,90,0.00,,---,0.00,VWS V14.01,2013-10-07 07:22:00,
2013-10-07 03:27:00,68.6,65.6,29.82,SE,132,1.0,3.0,90,0.00,,---,0.00,VWS V14.01,2013-10-07 07:27:00,
2013-10-07 03:32:00,68.6,65.6,29.82,East,96,0.0,1.0,90,0.00,,---,0.00,VWS V14.01,2013-10-07 07:32:00,
2013-10-07 03:37:00,68.5,65.5,29.82,ESE,122,0.0,0.0,90,0.00,,---,0.00,VWS V14.01,2013-10-07 07:37:00,
2013-10-07 03:42:00,68.5,65.5,29.82,NE,41,0.0,1.0,90,0.00,,---,0.00,VWS V14.01,2013-10-07 07:42:00,
2013-10-07 03:47:00,68.5,65.5,29.82,ENE,77,0.0,1.0,90,0.00,,---,0.00,VWS V14.01,2013-10-07 07:47:00,
2013-10-07 03:52:00,68.4,65.7,29.82,SE,139,0.0,4.0,91,0.00,,---,0.00,VWS V14.01,2013-10-07 07:52:00,
2013-10-07 03:58:00,68.3,65.6,29.82,NNE,19,0.0,0.0,91,0.00,,---,0.00,VWS V14.01,2013-10-07 07:58:00,
2013-10-07 04:03:00,68.3,65.6,29.83,NW,316,0.0,0.0,91,0.00,,---,0.00,VWS V14.01,2013-10-07 08:03:00,
2013-10-07 04:08:00,68.2,65.5,29.82,NNE,12,0.0,0.0,91,0.00,,---,0.00,VWS V14.01,2013-10-07 08:08:00,
2013-10-07 04:13:00,68.2,65.5,29.82,East,91,0.0,0.0,91,0.00,,---,0.00,VWS V14.01,2013-10-07 08:13:00,
2013-10-07 04:18:00,68.1,65.7,29.82,NE,54,0.0,3.0,92,0.00,,---,0.00,VWS V14.01,2013-10-07 08:18:00,
2013-10-07 04:23:00,68.1,65.7,29.82,NE,55,0.0,0.0,92,0.00,,---,0.00,VWS V14.01,2013-10-07 08:23:00,
2013-10-07 04:28:00,68.0,65.6,29.82,NE,54,0.0,0.0,92,0.00,,---,0.00,VWS V14.01,2013-10-07 08:28:00,
2013-10-07 04:33:00,67.9,65.5,29.82,NE,42,0.0,0.0,92,0.00,,---,0.00,VWS V14.01,2013-10-07 08:33:00,
2013-10-07 04:38:00,67.9,65.5,29.81,NE,43,0.0,0.0,92,0.00,,---,0.00,VWS V14.01,2013-10-07 08:38:00,
2013-10-07 04:43:00,67.9,65.5,29.81,East,101,0.0,0.0,92,0.00,,---,0.00,VWS V14.01,2013-10-07 08:43:00,
2013-10-07 04:49:00,67.9,65.5,29.80,East,92,0.0,0.0,92,0.00,,---,0.00,VWS V14.01,2013-10-07 08:49:00,
2013-10-07 04:54:00,67.9,65.5,29.80,ESE,113,1.0,1.0,92,0.00,,---,0.00,VWS V14.01,2013-10-07 08:54:00,
2013-10-07 04:59:00,67.9,65.5,29.79,SE,125,1.0,1.0,92,0.00,,---,0.00,VWS V14.01,2013-10-07 08:59:00,
2013-10-07 05:04:00,67.9,65.8,29.79,ESE,107,0.0,0.0,93,0.00,,---,0.00,VWS V14.01,2013-10-07 09:04:00,
2013-10-07 05:09:00,67.8,65.7,29.79,East,86,0.0,0.0,93,0.00,,---,0.00,VWS V14.01,2013-10-07 09:09:00,
2013-10-07 05:14:00,67.8,65.7,29.79,ESE,111,0.0,2.0,93,0.00,,---,0.00,VWS V14.01,2013-10-07 09:14:00,
2013-10-07 05:19:00,67.8,65.7,29.78,SE,126,1.0,2.0,93,0.00,,---,0.00,VWS V14.01,2013-10-07 09:19:00,
2013-10-07 05:24:00,67.8,65.7,29.78,SE,130,2.0,3.0,93,0.00,,---,0.00,VWS V14.01,2013-10-07 09:24:00,
2013-10-07 05:29:00,67.8,65.7,29.78,ESE,111,1.0,3.0,93,0.00,,---,0.00,VWS V14.01,2013-10-07 09:29:00,
2013-10-07 05:34:00,67.7,65.6,29.79,SE,128,2.0,3.0,93,0.00,,---,0.00,VWS V14.01,2013-10-07 09:34:00,
2013-10-07 05:39:00,67.7,65.6,29.79,ESE,110,3.0,4.0,93,0.00,,---,0.00,VWS V14.01,2013-10-07 09:39:00,
2013-10-07 05:45:00,67.6,65.5,29.78,ESE,111,1.0,3.0,93,0.00,,---,0.00,VWS V14.01,2013-10-07 09:45:00,
2013-10-07 05:50:00,67.7,65.6,29.78,ESE,117,2.0,2.0,93,0.00,,---,0.00,VWS V14.01,2013-10-07 09:50:00,
2013-10-07 05:55:00,67.6,65.8,29.78,ESE,104,1.0,3.0,94,0.00,,---,0.00,VWS V14.01,2013-10-07 09:55:00,
2013-10-07 06:00:00,67.6,65.8,29.78,ESE,115,1.0,2.0,94,0.00,,---,0.00,VWS V14.01,2013-10-07 10:00:00,
2013-10-07 06:05:00,67.6,65.8,29.79,ESE,111,1.0,1.0,94,0.00,,---,0.00,VWS V14.01,2013-10-07 10:05:00,
2013-10-07 06:10:00,67.6,65.8,29.78,East,99,0.0,2.0,94,0.00,,---,0.00,VWS V14.01,2013-10-07 10:10:00,
2013-10-07 06:15:00,67.6,65.8,29.78,ENE,58,0.0,2.0,94,0.00,,---,0.00,VWS V14.01,2013-10-07 10:15:00,
2013-10-07 06:20:00,67.6,65.8,29.77,SE,146,1.0,2.0,94,0.00,,---,0.00,VWS V14.01,2013-10-07 10:20:00,
2013-10-07 06:25:00,67.6,65.8,29.77,SSE,149,1.0,1.0,94,0.00,,---,0.00,VWS V14.01,2013-10-07 10:25:00,
2013-10-07 06:30:00,67.6,65.8,29.77,ESE,110,3.0,3.0,94,0.00,,---,0.00,VWS V14.01,2013-10-07 10:30:00,
2013-10-07 06:35:00,67.6,65.8,29.77,SE,124,2.0,2.0,94,0.00,,---,0.00,VWS V14.01,2013-10-07 10:35:00,
2013-10-07 06:41:00,67.6,65.8,29.77,ESE,103,1.0,2.0,94,0.00,,---,0.00,VWS V14.01,2013-10-07 10:41:00,
2013-10-07 06:46:00,67.7,65.9,29.76,ESE,110,0.0,1.0,94,0.00,,---,0.00,VWS V14.01,2013-10-07 10:46:00,
2013-10-07 06:51:00,67.7,65.9,29.76,ESE,103,0.0,2.0,94,0.00,,---,0.00,VWS V14.01,2013-10-07 10:51:00,
2013-10-07 06:56:00,67.7,65.9,29.76,ENE,77,1.0,2.0,94,0.00,,---,0.00,VWS V14.01,2013-10-07 10:56:00,
2013-10-07 07:01:00,67.8,66.0,29.76,ENE,77,0.0,2.0,94,0.00,,---,0.00,VWS V14.01,2013-10-07 11:01:00,
2013-10-07 07:06:00,67.8,65.7,29.76,ESE,122,0.0,1.0,93,0.00,,---,0.00,VWS V14.01,2013-10-07 11:06:00,
2013-10-07 07:11:00,67.8,65.7,29.76,ESE,107,1.0,2.0,93,0.00,,---,0.00,VWS V14.01,2013-10-07 11:11:00,
2013-10-07 07:16:00,67.9,66.1,29.76,SE,129,1.0,2.0,94,0.00,,---,0.00,VWS V14.01,2013-10-07 11:16:00,
2013-10-07 07:21:00,67.8,66.0,29.76,SSE,148,1.0,2.0,94,0.00,,---,0.00,VWS V14.01,2013-10-07 11:21:00,
2013-10-07 07:26:00,67.7,65.9,29.76,NE,51,0.0,5.0,94,0.00,,---,0.00,VWS V14.01,2013-10-07 11:26:00,
2013-10-07 07:31:00,67.6,65.8,29.75,East,99,2.0,3.0,94,0.00,,---,0.00,VWS V14.01,2013-10-07 11:31:00,
2013-10-07 07:36:00,67.6,66.1,29.75,ESE,107,1.0,3.0,95,0.00,,---,0.00,VWS V14.01,2013-10-07 11:36:00,
2013-10-07 07:41:00,67.6,66.1,29.75,East,96,0.0,1.0,95,0.00,,---,0.00,VWS V14.01,2013-10-07 11:41:00,
2013-10-07 07:47:00,67.6,66.1,29.74,ESE,103,1.0,2.0,95,0.00,,---,0.00,VWS V14.01,2013-10-07 11:47:00,
2013-10-07 07:52:00,67.7,65.9,29.74,SE,130,1.0,1.0,94,0.00,,---,0.00,VWS V14.01,2013-10-07 11:52:00,
2013-10-07 07:57:00,67.8,66.0,29.74,ESE,120,0.0,0.0,94,0.00,,---,0.00,VWS V14.01,2013-10-07 11:57:00,
2013-10-07 08:02:00,67.8,66.0,29.74,SE,125,2.0,2.0,94,0.00,,---,0.00,VWS V14.01,2013-10-07 12:02:00,
2013-10-07 08:07:00,67.9,66.1,29.74,SSW,197,0.0,3.0,94,0.00,,---,0.00,VWS V14.01,2013-10-07 12:07:00,
2013-10-07 08:12:00,68.0,66.2,29.73,ESE,103,0.0,2.0,94,0.00,,---,0.00,VWS V14.01,2013-10-07 12:12:00,
2013-10-07 08:17:00,68.0,66.2,29.73,ESE,107,0.0,0.0,94,0.00,,---,0.00,VWS V14.01,2013-10-07 12:17:00,
2013-10-07 08:22:00,68.0,66.2,29.72,ESE,115,0.0,2.0,94,0.00,,---,0.00,VWS V14.01,2013-10-07 12:22:00,
2013-10-07 08:27:00,68.0,66.2,29.73,NE,49,1.0,1.0,94,0.00,,---,0.00,VWS V14.01,2013-10-07 12:27:00,
2013-10-07 08:32:00,68.1,66.3,29.72,East,92,1.0,1.0,94,0.00,,---,0.00,VWS V14.01,2013-10-07 12:32:00,
2013-10-07 08:38:00,68.1,66.3,29.72,ENE,77,2.0,2.0,94,0.00,,---,0.00,VWS V14.01,2013-10-07 12:38:00,
2013-10-07 08:43:00,68.1,66.6,29.72,SE,128,0.0,0.0,95,0.00,,---,0.00,VWS V14.01,2013-10-07 12:43:00,
2013-10-07 08:48:00,67.9,66.4,29.72,SW,226,2.0,3.0,95,0.00,,---,0.00,VWS V14.01,2013-10-07 12:48:00,
2013-10-07 08:53:00,67.8,66.3,29.72,SE,132,1.0,1.0,95,0.00,,---,0.00,VWS V14.01,2013-10-07 12:53:00,
2013-10-07 08:58:00,67.8,66.6,29.73,SSE,150,3.0,4.0,96,0.07,,---,0.07,VWS V14.01,2013-10-07 12:58:00,
2013-10-07 09:03:00,67.8,66.6,29.75,NNE,27,7.0,7.0,96,0.13,,---,0.13,VWS V14.01,2013-10-07 13:03:00,
2013-10-07 09:08:00,67.3,65.8,29.75,NE,35,0.0,2.0,95,0.14,,---,0.14,VWS V14.01,2013-10-07 13:08:00,
2013-10-07 09:13:00,66.7,64.6,29.75,North,350,0.0,2.0,93,0.14,,---,0.14,VWS V14.01,2013-10-07 13:13:00,
2013-10-07 09:18:00,66.3,64.5,29.75,NE,49,0.0,0.0,94,0.15,,---,0.15,VWS V14.01,2013-10-07 13:18:00,
2013-10-07 09:23:00,66.0,64.5,29.75,NE,41,0.0,0.0,95,0.15,,---,0.15,VWS V14.01,2013-10-07 13:23:00,
2013-10-07 09:28:00,65.8,64.3,29.76,NE,41,1.0,4.0,95,0.15,,---,0.15,VWS V14.01,2013-10-07 13:28:00,
2013-10-07 09:33:00,65.6,64.1,29.76,SE,144,1.0,1.0,95,0.15,,---,0.15,VWS V14.01,2013-10-07 13:33:00,
2013-10-07 09:38:00,65.4,64.2,29.77,SSE,152,0.0,0.0,96,0.15,,---,0.15,VWS V14.01,2013-10-07 13:38:00,
2013-10-07 09:44:00,65.1,63.6,29.76,ESE,103,1.0,1.0,95,0.16,,---,0.16,VWS V14.01,2013-10-07 13:44:00,
2013-10-07 09:49:00,65.0,63.5,29.76,North,350,1.0,2.0,95,0.17,,---,0.17,VWS V14.01,2013-10-07 13:49:00,
2013-10-07 09:54:00,64.9,63.7,29.76,NE,49,0.0,1.0,96,0.18,,---,0.18,VWS V14.01,2013-10-07 13:54:00,
2013-10-07 09:59:00,64.7,63.5,29.75,NNW,345,3.0,4.0,96,0.11,,---,0.20,VWS V14.01,2013-10-07 13:59:00,
2013-10-07 10:04:00,64.5,63.3,29.75,NNW,337,0.0,0.0,96,0.09,,---,0.22,VWS V14.01,2013-10-07 14:04:00,
2013-10-07 10:09:00,64.3,63.1,29.75,NNE,12,0.0,3.0,96,0.09,,---,0.23,VWS V14.01,2013-10-07 14:09:00,
2013-10-07 10:14:00,64.2,63.0,29.76,ESE,109,0.0,1.0,96,0.10,,---,0.24,VWS V14.01,2013-10-07 14:14:00,
2013-10-07 10:19:00,64.1,62.9,29.74,NE,50,0.0,1.0,96,0.11,,---,0.26,VWS V14.01,2013-10-07 14:19:00,
2013-10-07 10:24:00,63.9,62.7,29.75,ENE,68,0.0,1.0,96,0.13,,---,0.28,VWS V14.01,2013-10-07 14:24:00,
2013-10-07 10:29:00,63.8,62.6,29.76,SE,146,0.0,0.0,96,0.13,,---,0.28,VWS V14.01,2013-10-07 14:29:00,
2013-10-07 10:34:00,63.8,62.9,29.75,NNE,26,0.0,2.0,97,0.14,,---,0.29,VWS V14.01,2013-10-07 14:34:00,
2013-10-07 10:39:00,63.9,63.0,29.74,ENE,68,0.0,1.0,97,0.16,,---,0.31,VWS V14.01,2013-10-07 14:39:00,
2013-10-07 10:44:00,64.0,63.1,29.75,NE,56,1.0,2.0,97,0.16,,---,0.32,VWS V14.01,2013-10-07 14:44:00,
2013-10-07 10:50:00,64.0,63.1,29.76,East,99,1.0,2.0,97,0.16,,---,0.33,VWS V14.01,2013-10-07 14:50:00,
2013-10-07 10:55:00,63.8,62.9,29.77,ENE,58,0.0,0.0,97,0.15,,---,0.33,VWS V14.01,2013-10-07 14:55:00,
2013-10-07 11:00:00,63.9,63.0,29.78,ENE,61,0.0,0.0,97,0.14,,---,0.34,VWS V14.01,2013-10-07 15:00:00,
2013-10-07 11:05:00,63.7,62.8,29.76,North,352,0.0,1.0,97,0.13,,---,0.35,VWS V14.01,2013-10-07 15:05:00,
2013-10-07 11:10:00,63.3,62.4,29.77,ENE,72,0.0,0.0,97,0.14,,---,0.37,VWS V14.01,2013-10-07 15:10:00,
2013-10-07 11:15:00,62.8,61.7,29.79,SW,221,0.0,0.0,96,0.15,,---,0.39,VWS V14.01,2013-10-07 15:15:00,
2013-10-07 11:20:00,62.2,61.0,29.78,SW,223,0.0,0.0,96,0.14,,---,0.40,VWS V14.01,2013-10-07 15:20:00,
2013-10-07 11:25:00,61.8,60.7,29.77,ESE,105,0.0,0.0,96,0.14,,---,0.42,VWS V14.01,2013-10-07 15:25:00,
2013-10-07 11:30:00,61.4,60.2,29.78,WSW,257,0.0,0.0,96,0.15,,---,0.43,VWS V14.01,2013-10-07 15:30:00,
2013-10-07 11:35:00,61.1,60.0,29.77,West,264,0.0,0.0,96,0.14,,---,0.43,VWS V14.01,2013-10-07 15:35:00,
2013-10-07 11:41:00,60.5,59.1,29.78,NW,307,0.0,0.0,95,0.12,,---,0.43,VWS V14.01,2013-10-07 15:41:00,
2013-10-07 11:46:00,60.0,58.6,29.78,NNE,15,0.0,0.0,95,0.12,,---,0.44,VWS V14.01,2013-10-07 15:46:00,
2013-10-07 11:51:00,59.7,58.6,29.77,West,259,0.0,2.0,96,0.12,,---,0.45,VWS V14.01,2013-10-07 15:51:00,
2013-10-07 11:56:00,59.2,58.1,29.78,West,263,1.0,1.0,96,0.11,,---,0.45,VWS V14.01,2013-10-07 15:56:00,
2013-10-07 12:01:00,59.0,57.9,29.78,WNW,294,2.0,2.0,96,0.12,,---,0.46,VWS V14.01,2013-10-07 16:01:00,
2013-10-07 12:06:00,58.7,57.6,29.79,West,271,0.0,0.0,96,0.12,,---,0.47,VWS V14.01,2013-10-07 16:06:00,
2013-10-07 12:11:00,58.7,57.6,29.80,NW,304,0.0,0.0,96,0.12,,---,0.49,VWS V14.01,2013-10-07 16:11:00,
2013-10-07 12:16:00,58.6,57.5,29.80,North,5,0.0,1.0,96,0.12,,---,0.51,VWS V14.01,2013-10-07 16:16:00,
2013-10-07 12:21:00,58.5,57.7,29.80,North,5,0.0,0.0,97,0.13,,---,0.53,VWS V14.01,2013-10-07 16:21:00,
2013-10-07 12:26:00,58.3,57.2,29.80,West,261,0.0,0.0,96,0.13,,---,0.55,VWS V14.01,2013-10-07 16:26:00,
2013-10-07 12:31:00,57.9,56.8,29.81,West,262,0.0,0.0,96,0.13,,---,0.56,VWS V14.01,2013-10-07 16:31:00,
2013-10-07 12:37:00,57.8,57.0,29.81,West,262,0.0,0.0,97,0.13,,---,0.56,VWS V14.01,2013-10-07 16:37:00,
2013-10-07 12:42:00,57.8,57.0,29.82,West,260,0.0,0.0,97,0.13,,---,0.56,VWS V14.01,2013-10-07 16:42:00,
2013-10-07 12:47:00,57.7,56.9,29.80,West,262,0.0,0.0,97,0.13,,---,0.57,VWS V14.01,2013-10-07 16:47:00,
2013-10-07 12:52:00,57.6,56.8,29.80,NNW,339,0.0,0.0,97,0.12,,---,0.57,VWS V14.01,2013-10-07 16:52:00,
2013-10-07 12:57:00,57.6,56.8,29.79,NW,307,0.0,0.0,97,0.13,,---,0.58,VWS V14.01,2013-10-07 16:57:00,
2013-10-07 13:02:00,57.4,56.6,29.78,NNE,12,0.0,0.0,97,0.13,,---,0.60,VWS V14.01,2013-10-07 17:02:00,
2013-10-07 13:07:00,57.2,56.4,29.81,NE,45,0.0,0.0,97,0.14,,---,0.61,VWS V14.01,2013-10-07 17:07:00,
2013-10-07 13:12:00,57.0,56.2,29.80,South,174,0.0,0.0,97,0.12,,---,0.61,VWS V14.01,2013-10-07 17:12:00,
2013-10-07 13:17:00,57.1,56.3,29.81,South,189,0.0,0.0,97,0.10,,---,0.61,VWS V14.01,2013-10-07 17:17:00,
2013-10-07 13:22:00,57.0,56.2,29.81,South,188,0.0,0.0,97,0.08,,---,0.61,VWS V14.01,2013-10-07 17:22:00,
2013-10-07 13:27:00,57.1,56.3,29.79,South,188,0.0,0.0,97,0.06,,---,0.61,VWS V14.01,2013-10-07 17:27:00,
2013-10-07 13:32:00,57.1,56.3,29.80,West,276,0.0,0.0,97,0.05,,---,0.61,VWS V14.01,2013-10-07 17:32:00,
2013-10-07 13:38:00,57.2,56.4,29.82,WSW,254,0.0,0.0,97,0.05,,---,0.61,VWS V14.01,2013-10-07 17:38:00,
2013-10-07 13:43:00,57.3,56.5,29.82,WSW,256,0.0,0.0,97,0.05,,---,0.61,VWS V14.01,2013-10-07 17:43:00,
2013-10-07 13:48:00,57.3,56.5,29.83,NE,34,0.0,0.0,97,0.04,,---,0.61,VWS V14.01,2013-10-07 17:48:00,
2013-10-07 13:53:00,57.3,56.5,29.83,NW,316,0.0,0.0,97,0.04,,---,0.61,VWS V14.01,2013-10-07 17:53:00,
2013-10-07 13:58:00,57.5,56.7,29.83,NW,316,0.0,0.0,97,0.03,,---,0.61,VWS V14.01,2013-10-07 17:58:00,
2013-10-07 14:03:00,57.6,56.8,29.82,NW,316,0.0,0.0,97,0.01,,---,0.61,VWS V14.01,2013-10-07 18:03:00,
2013-10-07 14:08:00,57.6,56.8,29.83,NW,316,0.0,0.0,97,0.00,,---,0.61,VWS V14.01,2013-10-07 18:08:00,
2013-10-07 14:13:00,57.7,56.9,29.83,NW,316,0.0,0.0,97,0.00,,---,0.61,VWS V14.01,2013-10-07 18:13:00,
2013-10-07 14:18:00,57.8,57.0,29.83,East,98,0.0,0.0,97,0.00,,---,0.61,VWS V14.01,2013-10-07 18:18:00,
2013-10-07 14:23:00,57.9,57.1,29.84,East,97,0.0,0.0,97,0.00,,---,0.61,VWS V14.01,2013-10-07 18:23:00,
2013-10-07 14:28:00,57.9,57.1,29.83,East,98,0.0,0.0,97,0.00,,---,0.61,VWS V14.01,2013-10-07 18:28:00,
2013-10-07 14:33:00,58.1,57.3,29.83,East,98,0.0,0.0,97,0.00,,---,0.61,VWS V14.01,2013-10-07 18:33:00,
2013-10-07 14:38:00,58.3,57.5,29.83,ENE,75,0.0,0.0,97,0.00,,---,0.61,VWS V14.01,2013-10-07 18:38:00,
2013-10-07 14:43:00,58.5,57.7,29.83,ENE,75,0.0,0.0,97,0.00,,---,0.61,VWS V14.01,2013-10-07 18:43:00,
2013-10-07 14:48:00,58.6,57.8,29.84,ENE,75,0.0,0.0,97,0.00,,---,0.61,VWS V14.01,2013-10-07 18:48:00,
2013-10-07 14:53:00,58.7,57.8,29.84,ENE,75,0.0,0.0,97,0.00,,---,0.61,VWS V14.01,2013-10-07 18:53:00,
2013-10-07 14:59:00,58.9,58.0,29.84,ENE,75,0.0,0.0,97,0.00,,---,0.61,VWS V14.01,2013-10-07 18:59:00,
2013-10-07 15:04:00,59.2,58.3,29.84,ENE,75,0.0,0.0,97,0.00,,---,0.61,VWS V14.01,2013-10-07 19:04:00,
2013-10-07 15:09:00,59.4,58.5,29.84,ENE,75,0.0,0.0,97,0.00,,---,0.61,VWS V14.01,2013-10-07 19:09:00,
2013-10-07 15:14:00,59.4,58.5,29.85,ENE,76,0.0,0.0,97,0.00,,---,0.61,VWS V14.01,2013-10-07 19:14:00,
2013-10-07 15:19:00,59.3,58.2,29.85,ENE,76,0.0,0.0,96,0.00,,---,0.61,VWS V14.01,2013-10-07 19:19:00,
2013-10-07 15:24:00,59.3,58.2,29.85,ENE,58,0.0,0.0,96,0.00,,---,0.61,VWS V14.01,2013-10-07 19:24:00,
2013-10-07 15:29:00,59.5,58.4,29.85,NNE,16,0.0,0.0,96,0.00,,---,0.61,VWS V14.01,2013-10-07 19:29:00,
2013-10-07 15:34:00,59.5,58.4,29.85,NNE,20,0.0,0.0,96,0.00,,---,0.61,VWS V14.01,2013-10-07 19:34:00,
2013-10-07 15:39:00,59.6,58.5,29.85,NNE,20,0.0,0.0,96,0.00,,---,0.61,VWS V14.01,2013-10-07 19:39:00,
2013-10-07 15:44:00,59.7,58.6,29.85,NNE,32,0.0,1.0,96,0.00,,---,0.61,VWS V14.01,2013-10-07 19:44:00,
2013-10-07 15:49:00,59.9,58.8,29.85,NNE,32,0.0,0.0,96,0.00,,---,0.61,VWS V14.01,2013-10-07 19:49:00,
2013-10-07 15:54:00,60.1,59.0,29.85,NNE,32,0.0,0.0,96,0.00,,---,0.61,VWS V14.01,2013-10-07 19:54:00,
2013-10-07 15:59:00,60.3,59.2,29.86,SE,128,0.0,0.0,96,0.00,,---,0.61,VWS V14.01,2013-10-07 19:59:00,
2013-10-07 16:04:00,60.5,59.4,29.86,SE,128,0.0,0.0,96,0.00,,---,0.61,VWS V14.01,2013-10-07 20:04:00,
2013-10-07 16:09:00,60.5,58.8,29.86,WSW,248,0.0,0.0,94,0.00,,---,0.61,VWS V14.01,2013-10-07 20:09:00,
2013-10-07 16:14:00,60.7,59.3,29.87,WSW,248,0.0,0.0,95,0.00,,---,0.61,VWS V14.01,2013-10-07 20:14:00,
2013-10-07 16:20:00,60.8,59.1,29.87,WSW,248,0.0,0.0,94,0.00,,---,0.61,VWS V14.01,2013-10-07 20:20:00,
2013-10-07 16:25:00,60.9,59.2,29.87,West,278,0.0,0.0,94,0.00,,---,0.61,VWS V14.01,2013-10-07 20:25:00,
2013-10-07 16:30:00,60.7,58.7,29.88,West,278,0.0,0.0,93,0.00,,---,0.61,VWS V14.01,2013-10-07 20:30:00,
2013-10-07 16:35:00,60.7,58.7,29.88,WNW,303,0.0,0.0,93,0.00,,---,0.61,VWS V14.01,2013-10-07 20:35:00,
2013-10-07 16:40:00,60.4,57.5,29.88,NW,307,0.0,0.0,90,0.00,,---,0.61,VWS V14.01,2013-10-07 20:40:00,
2013-10-07 16:45:00,60.1,55.6,29.88,NE,49,0.0,1.0,85,0.00,,---,0.61,VWS V14.01,2013-10-07 20:45:00,
2013-10-07 16:50:00,60.0,57.4,29.89,WNW,282,0.0,1.0,91,0.00,,---,0.61,VWS V14.01,2013-10-07 20:50:00,
2013-10-07 16:55:00,59.5,56.3,29.89,NNW,336,0.0,0.0,89,0.00,,---,0.61,VWS V14.01,2013-10-07 20:55:00,
2013-10-07 17:00:00,59.0,53.5,29.90,NNE,28,0.0,0.0,82,0.00,,---,0.61,VWS V14.01,2013-10-07 21:00:00,
2013-10-07 17:05:00,58.6,54.4,29.90,East,92,0.0,0.0,86,0.00,,---,0.61,VWS V14.01,2013-10-07 21:05:00,
2013-10-07 17:10:00,58.1,53.3,29.90,West,269,0.0,1.0,84,0.00,,---,0.61,VWS V14.01,2013-10-07 21:10:00,
2013-10-07 17:15:00,57.9,54.4,29.90,NNE,22,0.0,0.0,88,0.00,,---,0.61,VWS V14.01,2013-10-07 21:15:00,
2013-10-07 17:20:00,57.6,53.1,29.91,NW,325,0.0,1.0,85,0.00,,---,0.61,VWS V14.01,2013-10-07 21:20:00,
2013-10-07 17:25:00,57.4,53.2,29.90,NW,326,0.0,0.0,86,0.00,,---,0.61,VWS V14.01,2013-10-07 21:25:00,
2013-10-07 17:30:00,57.3,53.8,29.90,NNW,340,0.0,0.0,88,0.00,,---,0.61,VWS V14.01,2013-10-07 21:30:00,
2013-10-07 17:35:00,57.2,54.0,29.91,NE,41,0.0,1.0,89,0.00,,---,0.61,VWS V14.01,2013-10-07 21:35:00,
2013-10-07 17:40:00,56.8,53.0,29.90,NE,52,0.0,0.0,87,0.00,,---,0.61,VWS V14.01,2013-10-07 21:40:00,
2013-10-07 17:45:00,56.8,53.9,29.91,NE,47,0.0,0.0,90,0.00,,---,0.61,VWS V14.01,2013-10-07 21:45:00,
2013-10-07 17:50:00,56.7,53.8,29.91,NNW,334,0.0,0.0,90,0.00,,---,0.61,VWS V14.01,2013-10-07 21:50:00,
2013-10-07 17:55:00,56.6,53.7,29.91,NNW,334,0.0,0.0,90,0.00,,---,0.61,VWS V14.01,2013-10-07 21:55:00,
2013-10-07 18:00:00,56.5,53.3,29.91,NNW,335,0.0,0.0,89,0.00,,---,0.61,VWS V14.01,2013-10-07 22:00:00,
2013-10-07 18:05:00,56.3,53.1,29.91,NNW,343,0.0,0.0,89,0.00,,---,0.61,VWS V14.01,2013-10-07 22:05:00,
2013-10-07 18:10:00,56.2,53.3,29.91,ENE,58,0.0,0.0,90,0.00,,---,0.61,VWS V14.01,2013-10-07 22:10:00,
2013-10-07 18:15:00,55.9,52.7,29.92,ESE,103,0.0,0.0,89,0.00,,---,0.61,VWS V14.01,2013-10-07 22:15:00,
2013-10-07 18:20:00,55.8,52.6,29.92,West,263,0.0,0.0,89,0.00,,---,0.61,VWS V14.01,2013-10-07 22:20:00,
2013-10-07 18:25:00,55.7,51.9,29.93,West,263,0.0,0.0,87,0.00,,---,0.61,VWS V14.01,2013-10-07 22:25:00,
2013-10-07 18:30:00,55.6,50.2,29.93,West,281,0.0,0.0,82,0.00,,---,0.61,VWS V14.01,2013-10-07 22:30:00,
2013-10-07 18:36:00,55.8,50.7,29.93,West,281,0.0,0.0,83,0.00,,---,0.61,VWS V14.01,2013-10-07 22:36:00,
2013-10-07 18:41:00,55.7,50.3,29.94,West,281,0.0,0.0,82,0.00,,---,0.61,VWS V14.01,2013-10-07 22:41:00,
2013-10-07 18:46:00,55.7,49.3,29.93,West,281,0.0,0.0,79,0.00,,---,0.61,VWS V14.01,2013-10-07 22:46:00,
2013-10-07 18:51:00,55.7,51.0,29.94,West,281,0.0,0.0,84,0.00,,---,0.61,VWS V14.01,2013-10-07 22:51:00,
2013-10-07 18:56:00,55.4,51.3,29.94,West,280,0.0,0.0,86,0.00,,---,0.61,VWS V14.01,2013-10-07 22:56:00,
2013-10-07 19:01:00,54.9,50.8,29.95,SE,128,0.0,0.0,86,0.00,,---,0.61,VWS V14.01,2013-10-07 23:01:00,
2013-10-07 19:06:00,54.5,50.4,29.95,SE,132,0.0,0.0,86,0.00,,---,0.61,VWS V14.01,2013-10-07 23:06:00,
2013-10-07 19:11:00,54.3,49.6,29.95,West,262,1.0,1.0,84,0.00,,---,0.61,VWS V14.01,2013-10-07 23:11:00,
2013-10-07 19:16:00,54.7,48.7,29.95,WNW,285,1.0,1.0,80,0.00,,---,0.61,VWS V14.01,2013-10-07 23:16:00,
2013-10-07 19:21:00,55.0,49.3,29.95,West,278,0.0,0.0,81,0.00,,---,0.61,VWS V14.01,2013-10-07 23:21:00,
2013-10-07 19:26:00,55.1,50.4,29.95,NE,53,0.0,0.0,84,0.00,,---,0.61,VWS V14.01,2013-10-07 23:26:00,
2013-10-07 19:31:00,54.6,49.9,29.96,NE,53,0.0,0.0,84,0.00,,---,0.61,VWS V14.01,2013-10-07 23:31:00,
2013-10-07 19:36:00,54.1,49.4,29.97,NE,52,0.0,0.0,84,0.00,,---,0.61,VWS V14.01,2013-10-07 23:36:00,
2013-10-07 19:41:00,53.9,48.9,29.97,NE,49,0.0,0.0,83,0.00,,---,0.61,VWS V14.01,2013-10-07 23:41:00,
2013-10-07 19:46:00,53.8,48.4,29.97,North,350,0.0,0.0,82,0.00,,---,0.61,VWS V14.01,2013-10-07 23:46:00,
2013-10-07 19:51:00,53.7,48.3,29.97,North,350,0.0,0.0,82,0.00,,---,0.61,VWS V14.01,2013-10-07 23:51:00,
2013-10-07 19:56:00,53.7,48.3,29.98,North,350,0.0,0.0,82,0.00,,---,0.61,VWS V14.01,2013-10-07 23:56:00,
2013-10-07 20:01:00,53.7,48.3,29.98,WSW,257,0.0,0.0,82,0.00,,---,0.61,VWS V14.01,2013-10-08 00:01:00,
2013-10-07 20:06:00,53.8,48.8,29.98,WSW,257,0.0,0.0,83,0.00,,---,0.61,VWS V14.01,2013-10-08 00:06:00,
2013-10-07 20:11:00,53.9,48.5,29.98,WSW,257,0.0,0.0,82,0.00,,---,0.61,VWS V14.01,2013-10-08 00:11:00,
2013-10-07 20:16:00,54.0,50.5,29.99,SE,139,0.0,0.0,88,0.00,,---,0.61,VWS V14.01,2013-10-08 00:16:00,
2013-10-07 20:21:00,53.5,50.0,29.99,SSE,148,0.0,0.0,88,0.00,,---,0.61,VWS V14.01,2013-10-08 00:21:00,
2013-10-07 20:26:00,53.2,50.0,30.00,SSE,152,0.0,0.0,89,0.00,,---,0.61,VWS V14.01,2013-10-08 00:26:00,
2013-10-07 20:31:00,52.9,48.8,30.00,SSE,152,0.0,0.0,86,0.00,,---,0.61,VWS V14.01,2013-10-08 00:31:00,
2013-10-07 20:36:00,52.8,48.7,30.00,SSE,152,0.0,0.0,86,0.00,,---,0.61,VWS V14.01,2013-10-08 00:36:00,
2013-10-07 20:41:00,52.6,49.2,30.00,SSE,152,0.0,0.0,88,0.00,,---,0.61,VWS V14.01,2013-10-08 00:41:00,
2013-10-07 20:46:00,52.6,47.9,30.00,West,259,0.0,1.0,84,0.00,,---,0.61,VWS V14.01,2013-10-08 00:46:00,
2013-10-07 20:51:00,53.1,47.1,30.00,WNW,290,1.0,2.0,80,0.00,,---,0.61,VWS V14.01,2013-10-08 00:51:00,
2013-10-07 20:56:00,53.4,47.7,30.00,WNW,291,0.0,0.0,81,0.00,,---,0.61,VWS V14.01,2013-10-08 00:56:00,
2013-10-07 21:01:00,53.5,48.2,30.00,WNW,293,0.0,1.0,82,0.00,,---,0.61,VWS V14.01,2013-10-08 01:01:00,
2013-10-07 21:06:00,53.5,48.5,30.00,WNW,293,0.0,1.0,83,0.00,,---,0.61,VWS V14.01,2013-10-08 01:06:00,
2013-10-07 21:11:00,53.4,47.7,30.01,WNW,293,0.0,0.0,81,0.00,,---,0.61,VWS V14.01,2013-10-08 01:11:00,
2013-10-07 21:16:00,53.4,47.4,30.00,WNW,290,0.0,1.0,80,0.00,,---,0.61,VWS V14.01,2013-10-08 01:16:00,
2013-10-07 21:21:00,53.3,47.6,30.00,West,281,1.0,2.0,81,0.00,,---,0.61,VWS V14.01,2013-10-08 01:21:00,
2013-10-07 21:26:00,53.3,48.3,30.00,NW,308,0.0,0.0,83,0.00,,---,0.61,VWS V14.01,2013-10-08 01:26:00,
2013-10-07 21:32:00,53.2,48.2,30.00,WNW,302,1.0,1.0,83,0.00,,---,0.61,VWS V14.01,2013-10-08 01:32:00,
2013-10-07 21:37:00,53.0,47.3,30.01,WNW,285,0.0,0.0,81,0.00,,---,0.61,VWS V14.01,2013-10-08 01:37:00,
2013-10-07 21:42:00,53.0,47.7,30.01,WNW,285,0.0,0.0,82,0.00,,---,0.61,VWS V14.01,2013-10-08 01:42:00,
2013-10-07 21:47:00,52.9,47.2,30.01,West,274,0.0,0.0,81,0.00,,---,0.61,VWS V14.01,2013-10-08 01:47:00,
2013-10-07 21:52:00,52.8,46.8,30.02,NW,305,0.0,0.0,80,0.00,,---,0.61,VWS V14.01,2013-10-08 01:52:00,
2013-10-07 21:57:00,52.9,46.6,30.02,West,280,0.0,0.0,79,0.00,,---,0.61,VWS V14.01,2013-10-08 01:57:00,
2013-10-07 22:02:00,52.9,46.9,30.02,West,280,0.0,0.0,80,0.00,,---,0.61,VWS V14.01,2013-10-08 02:02:00,
2013-10-07 22:07:00,52.8,46.8,30.02,West,281,0.0,0.0,80,0.00,,---,0.61,VWS V14.01,2013-10-08 02:07:00,
2013-10-07 22:12:00,52.6,46.9,30.03,WNW,286,0.0,0.0,81,0.00,,---,0.61,VWS V14.01,2013-10-08 02:12:00,
2013-10-07 22:17:00,52.5,46.5,30.04,WNW,285,0.0,0.0,80,0.00,,---,0.61,VWS V14.01,2013-10-08 02:17:00,
2013-10-07 22:22:00,52.6,46.6,30.03,West,275,0.0,0.0,80,0.00,,---,0.61,VWS V14.01,2013-10-08 02:22:00,
2013-10-07 22:27:00,52.7,46.7,30.03,WNW,290,0.0,0.0,80,0.00,,---,0.61,VWS V14.01,2013-10-08 02:27:00,
2013-10-07 22:32:00,52.7,47.0,30.03,WNW,287,0.0,0.0,81,0.00,,---,0.61,VWS V14.01,2013-10-08 02:32:00,
2013-10-07 22:37:00,52.6,46.6,30.03,WNW,292,1.0,2.0,80,0.00,,---,0.61,VWS V14.01,2013-10-08 02:37:00,
2013-10-07 22:42:00,52.6,46.6,30.03,WNW,298,0.0,0.0,80,0.00,,---,0.61,VWS V14.01,2013-10-08 02:42:00,
2013-10-07 22:47:00,52.5,46.5,30.03,West,276,0.0,0.0,80,0.00,,---,0.61,VWS V14.01,2013-10-08 02:47:00,
2013-10-07 22:53:00,52.5,46.5,30.03,WNW,291,1.0,1.0,80,0.00,,---,0.61,VWS V14.01,2013-10-08 02:53:00,
2013-10-07 22:58:00,52.5,46.5,30.03,WNW,300,1.0,1.0,80,0.00,,---,0.61,VWS V14.01,2013-10-08 02:58:00,
2013-10-07 23:03:00,52.4,46.4,30.03,NW,308,1.0,1.0,80,0.00,,---,0.61,VWS V14.01,2013-10-08 03:03:00,
2013-10-07 23:08:00,52.2,46.2,30.03,WNW,294,0.0,1.0,80,0.00,,---,0.61,VWS V14.01,2013-10-08 03:08:00,
2013-10-07 23:13:00,52.1,46.8,30.03,West,281,0.0,0.0,82,0.00,,---,0.61,VWS V14.01,2013-10-08 03:13:00,
2013-10-07 23:18:00,52.0,46.0,30.04,SW,235,0.0,1.0,80,0.00,,---,0.61,VWS V14.01,2013-10-08 03:18:00,
2013-10-07 23:23:00,52.0,46.0,30.04,NW,315,1.0,2.0,80,0.00,,---,0.61,VWS V14.01,2013-10-08 03:23:00,
2013-10-07 23:28:00,51.9,46.3,30.04,WNW,284,0.0,1.0,81,0.00,,---,0.61,VWS V14.01,2013-10-08 03:28:00,
2013-10-07 23:33:00,52.0,46.0,30.04,WNW,291,0.0,1.0,80,0.00,,---,0.61,VWS V14.01,2013-10-08 03:33:00,
2013-10-07 23:38:00,52.0,46.4,30.05,WNW,293,1.0,2.0,81,0.00,,---,0.61,VWS V14.01,2013-10-08 03:38:00,
2013-10-07 23:43:00,51.9,45.9,30.05,WNW,300,2.0,2.0,80,0.00,,---,0.61,VWS V14.01,2013-10-08 03:43:00,
2013-10-07 23:48:00,52.0,45.7,30.04,WNW,299,1.0,2.0,79,0.00,,---,0.61,VWS V14.01,2013-10-08 03:48:00,
2013-10-07 23:53:00,52.0,46.0,30.05,West,274,0.0,0.0,80,0.00,,---,0.61,VWS V14.01,2013-10-08 03:53:00,
2013-10-07 23:59:00,51.9,45.9,30.04,NW,316,1.0,1.0,80,0.00,,---,0.61,VWS V14.01,2013-10-08 03:59:00,